Starlink 6089

operational
NORAD ID: 56096 Int'l Des: 2023-046 Owner: SPXS Country: US Constellation: starlink
LEOCIRCULAR

About Starlink 6089

Description loading...

Live Position

Loading 3D Globe...

Upcoming Passes

Altitude History

Altitude vs Time

uPlot chart will show altitude changes over time

Two-Line Element Set

1 56096U 23046D 25351.08480868 .00001140 00000-0 99409-4 0 9990
2 56096 43.0035 248.0133 0001315 263.6855 96.3838 15.02540980149633
Epoch: Dec 17, 2025 • Age: 17 hours

Current Status

Altitude 558.3 km
Velocity 7.59 km/s
Sub-Earth Point 12.69°N, 43.14°E
Launch Date Mar 29, 2023
Age 2.7 years
Type internet

Technical Details

Classification Payload
Mass 305.00 kg
Dry Mass 290.00 kg
Total Mass 305.00 kg
Length 0.20 m
Diameter 2.80 m
Span 9.00 m
Shape Box + pan
Manufacturer SPXS
Bus Type Starlink
Phase Status In Orbit
Owner/State SPXS/US

Large Constellations

Loading constellations...